Location: ??????????
(54.8537°N, 38.8755°E)
Time: 21:31:17
(UTC+00:00)

Transit 2A Rocket - Pass Details

Date: 19 September 2024
Orbit: 582 x 908 km, 66.7° (Epoch: 09 October)

Event Time Altitude Azimuth Distance (km) Brightness Sun altitude
Exits shadow 23:21:41 18° 301° (WNW) 2,072 7.1 -28.7°
Maximum altitude 23:24:59 29° 347° (NNW) 1,610 6.9 -28.4°
Drops below altitude 10° 23:30:07 10° 46° (NE) 2,545 8.6 -27.9°
Sets 23:32:56 0° 58° (ENE) 3,447 9.5 -27.7°
